Date,TemperatureHighF,TemperatureAvgF,TemperatureLowF,DewpointHighF,DewpointAvgF,DewpointLowF,HumidityHigh,HumidityAvg,HumidityLow,PressureMaxIn,PressureMinIn,WindSpeedMaxMPH,WindSpeedAvgMPH,GustSpeedMaxMPH,PrecipitationSumIn
2013-1-14,59,47,38,53,35,28,90,64,42,30.23,29.94,12,3,31,0.00
2013-1-15,41,35,29,31,27,24,93,74,52,30.30,30.21,8,1,13,0.00
2013-1-16,33,32,31,32,30,28,95,93,82,30.24,29.79,5,1,6,0.01
2013-1-17,42,31,22,34,23,3,96,74,43,30.11,29.80,14,3,24,0.13
2013-1-18,23,16,9,8,-1,-9,85,51,33,30.41,30.07,11,3,23,0.00
2013-1-19,44,31,13,30,21,9,88,69,45,30.34,29.84,12,2,16,0.01
2013-1-20,50,35,26,34,23,5,95,64,33,29.90,29.49,19,5,34,0.00
2013-1-21,29,23,18,20,8,0,90,55,37,30.05,29.82,15,3,22,0.00
2013-1-22,25,19,5,20,9,-4,89,68,31,30.05,29.76,17,3,29,0.00
2013-1-23,10,4,-1,-1,-8,-13,84,59,35,30.14,30.04,13,4,26,0.00
2013-1-24,15,6,-3,-5,-10,-14,66,48,32,30.23,30.06,17,5,28,0.00
2013-1-25,22,13,5,6,-4,-6,63,48,33,30.30,30.06,13,3,23,0.00
2013-1-26,21,15,6,9,2,-5,89,58,34,30.22,30.02,17,4,23,0.00
2013-1-27,28,18,10,5,1,-7,72,51,25,30.48,30.20,13,4,26,0.00
2013-1-28,28,19,8,22,12,2,92,74,36,30.47,30.05,4,1,7,0.00
2013-1-29,35,28,15,33,25,12,95,88,76,30.20,30.06,4,1,5,0.15
2013-1-30,44,37,34,44,37,33,99,97,95,30.14,29.41,4,1,6,0.36
2013-1-31,61,46,31,59,35,10,100,69,41,29.50,28.86,21,8,38,0.55
2013-2-1,31,26,20,22,12,6,85,56,41,30.06,29.50,17,6,31,0.00
2013-2-2,28,22,14,16,10,6,77,59,41,30.20,30.03,9,3,13,0.00
2013-2-3,30,25,18,19,17,15,89,71,58,30.04,29.71,9,2,15,0.00
2013-2-4,30,25,19,19,9,1,81,54,32,29.89,29.70,17,4,30,0.00
2013-2-5,32,20,8,16,8,3,83,61,34,30.03,29.89,8,2,12,0.00
2013-2-6,38,28,20,27,17,-3,90,67,35,30.30,29.93,15,3,19,0.00
2013-2-7,26,20,13,5,-1,-6,59,40,27,30.53,30.30,13,3,19,0.00
2013-2-8,23,19,17,15,12,5,89,77,45,30.51,29.82,27,8,34,0.00
2013-2-9,22,19,15,20,13,3,91,78,59,30.20,29.73,21,8,40,0.00
2013-2-10,37,18,-1,15,5,-5,88,61,25,30.41,30.20,9,2,17,0.00
2013-2-11,33,23,6,32,21,3,96,90,79,30.36,29.63,7,1,10,0.00
2013-2-12,45,38,31,35,31,29,97,75,54,29.82,29.59,22,4,30,0.26
2013-2-13,42,34,26,29,25,22,88,69,50,29.84,29.72,11,2,19,0.00
2013-2-14,43,31,23,26,23,21,92,74,45,29.98,29.70,12,2,17,0.00
2013-2-15,53,34,19,34,26,17,92,76,42,29.97,29.87,11,2,19,0.00
2013-2-16,40,34,29,31,24,9,94,67,44,29.95,29.75,12,3,16,0.01
2013-2-17,28,21,16,16,8,3,85,59,43,29.74,29.38,31,8,38,0.00
2013-2-18,30,22,14,5,0,-5,63,43,22,30.11,29.65,22,6,34,0.00
2013-2-19,45,30,13,37,18,-1,96,62,31,30.16,29.56,7,1,10,0.11
2013-2-20,37,32,25,36,24,17,97,71,55,29.73,29.51,14,5,24,0.04
2013-2-21,27,24,20,19,14,10,81,65,53,30.22,29.72,19,6,32,0.00
2013-2-22,43,29,12,27,20,9,100,72,41,30.41,30.24,7,1,13,0.00
2013-2-23,38,34,27,34,31,24,96,90,82,30.33,29.96,4,0,8,0.02
2013-2-24,35,34,32,34,33,31,97,96,91,29.96,29.75,9,2,13,0.04
2013-2-25,40,35,28,36,33,27,96,92,83,30.23,29.90,6,0,8,0.27
2013-2-26,41,36,32,36,34,31,97,90,80,30.33,30.19,7,1,10,0.02
2013-2-27,39,36,34,37,34,31,95,92,83,30.19,29.63,21,6,26,0.23
2013-2-28,46,38,34,40,36,32,96,91,76,29.62,29.52,14,1,23,0.06
2013-3-1,40,36,30,36,32,30,97,84,69,29.67,29.52,11,2,17,0.00
2013-3-2,43,37,32,31,29,27,90,75,60,29.67,29.61,10,3,17,0.00
2013-3-3,42,34,30,32,29,27,91,81,66,29.65,29.55,10,3,17,0.04
2013-3-4,38,32,29,30,25,23,87,76,66,29.77,29.58,17,6,24,0.01
2013-3-5,45,36,28,35,28,23,93,75,57,30.09,29.77,10,3,19,0.00
2013-3-6,39,37,34,35,32,28,92,82,68,30.19,30.08,24,8,33,0.00
2013-3-7,36,34,32,31,29,27,92,82,72,30.17,30.06,26,10,33,0.00
2013-3-8,49,40,32,30,24,20,90,58,34,30.20,30.00,22,10,30,0.00
2013-3-9,58,39,22,29,22,11,91,60,16,30.36,30.19,9,2,15,0.00
2013-3-10,54,38,22,33,28,20,93,72,41,30.41,30.28,7,2,10,0.00
2013-3-11,55,42,31,40,34,30,95,74,46,30.30,30.11,7,2,12,0.00
2013-3-12,52,45,36,51,44,34,98,96,86,30.13,29.70,8,1,14,0.43
2013-3-13,50,42,30,50,34,24,98,74,42,29.76,29.69,14,3,21,0.00
2013-3-14,36,30,21,28,19,7,93,65,44,29.82,29.66,16,4,27,0.00
2013-3-15,40,29,19,31,16,6,94,61,32,29.84,29.61,19,5,25,0.00
2013-3-16,34,30,20,26,17,11,89,61,40,29.89,29.68,10,3,17,0.04
2013-3-17,33,26,15,17,9,2,88,53,30,30.32,29.89,20,4,34,0.00
2013-3-18,41,26,9,24,7,1,81,48,22,30.45,30.25,9,2,12,0.00
2013-3-19,34,31,26,33,29,24,96,93,87,30.25,29.71,12,6,30,0.02
2013-3-20,38,31,26,27,23,19,95,76,53,29.76,29.67,15,4,30,0.11
2013-3-21,42,28,10,24,18,7,89,68,35,29.78,29.59,7,2,11,0.09
2013-3-22,40,30,19,28,20,17,90,68,39,29.70,29.61,11,3,21,0.00
2013-3-23,43,35,26,25,22,20,79,61,42,29.75,29.60,17,4,34,0.00
2013-3-24,45,39,30,28,26,25,84,62,47,29.82,29.73,19,4,27,0.00
2013-3-25,44,35,25,32,27,22,90,75,56,29.77,29.55,11,4,21,0.00
2013-5-15,56,54,52,53,52,51,95,91,85,29.78,29.64,6,2,10,0.09
2013-5-16,80,64,45,54,44,37,98,58,23,29.80,29.58,18,4,28,0.00
2013-5-17,68,57,50,46,42,38,82,60,34,30.20,29.81,15,5,24,0.00
2013-5-18,76,59,42,49,44,36,94,63,24,30.29,30.20,9,2,15,0.00
2013-5-19,73,58,48,55,51,46,96,80,50,30.34,30.19,9,2,12,0.32
2013-5-20,77,65,56,65,60,55,98,86,64,30.18,29.92,13,2,15,0.06
2013-5-21,77,61,53,66,58,51,97,89,67,30.06,29.88,25,4,28,0.45
2013-5-22,64,57,53,60,55,52,97,93,82,29.98,29.86,9,2,10,0.64
2013-5-23,73,63,53,70,61,52,98,94,83,29.91,29.75,9,2,12,0.24
2013-5-24,73,63,49,69,60,48,98,89,71,29.84,29.61,11,3,18,0.31
2013-5-25,50,47,36,49,46,35,96,95,90,29.84,29.72,10,5,17,0.82
2013-5-26,56,48,38,43,40,36,94,77,57,30.05,29.68,19,7,29,0.36
2013-5-27,70,54,36,45,39,33,96,63,26,30.17,30.05,19,4,26,0.00
2013-5-28,78,60,39,47,42,38,95,60,27,30.25,30.14,9,2,14,0.00
2013-5-29,62,58,52,60,56,47,98,94,83,30.16,29.99,6,1,7,0.19
2013-5-30,88,73,58,70,64,57,100,77,44,30.05,29.97,10,2,22,0.01
2013-5-31,97,78,60,71,65,59,97,69,32,30.06,29.88,10,2,15,0.00
2013-6-1,98,79,63,76,68,62,96,73,32,29.93,29.79,12,2,18,0.02
2013-6-2,96,78,67,73,69,66,98,79,41,29.82,29.62,23,4,27,0.76
2013-6-3,83,71,59,69,62,49,98,77,40,29.79,29.70,15,3,21,0.02
2013-6-4,68,60,51,52,46,44,85,61,44,30.07,29.80,16,4,26,0.00
2013-6-5,77,62,46,52,45,37,94,60,25,30.17,30.06,15,2,16,0.00
2013-6-6,78,65,53,57,51,44,86,62,36,30.18,30.07,11,2,13,0.00
2013-6-7,59,56,53,56,53,50,96,92,81,30.10,29.88,8,3,15,0.61
2013-6-8,75,64,55,63,59,53,96,85,67,29.98,29.67,13,4,21,0.63
2013-6-9,79,67,55,60,57,54,96,73,45,30.15,29.99,14,2,16,0.00
2013-6-10,75,63,52,62,57,50,96,83,59,30.18,30.01,7,2,10,0.02
2013-6-11,64,59,56,59,57,54,97,92,79,30.01,29.57,11,3,17,0.08
2013-6-12,69,62,56,58,56,55,100,82,63,29.80,29.54,14,4,26,0.07
2013-6-13,73,61,51,61,56,50,97,83,49,29.80,29.69,6,2,10,0.05
2013-6-14,77,64,55,59,56,50,98,77,39,29.76,29.66,10,2,16,0.04
2013-6-15,78,66,52,57,50,42,94,60,29,29.91,29.76,12,3,22,0.02
2013-6-16,79,64,50,64,57,48,95,78,45,29.91,29.68,10,2,15,0.02
2013-6-17,85,68,55,68,61,54,96,80,39,29.87,29.74,13,2,19,0.01
2013-6-18,66,61,56,62,59,55,100,92,78,29.97,29.86,6,1,14,0.01
2013-6-19,77,64,52,56,51,45,97,68,34,30.14,29.91,12,2,15,0.01
2013-6-20,82,66,47,58,51,45,95,65,30,30.25,30.14,14,2,14,0.00
2013-6-21,87,68,52,64,56,51,95,70,32,30.22,30.16,8,1,13,0.01
2013-6-22,88,73,57,72,64,55,95,76,48,30.19,30.06,9,2,15,0.00
2013-6-23,93,75,66,79,71,66,98,88,58,30.11,29.90,9,1,22,0.00
2013-6-24,95,78,66,75,70,66,98,80,46,29.96,29.83,17,2,24,0.00
2013-6-25,71,69,67,70,68,66,97,96,92,29.89,29.84,0,0,0,0.00
2013-7-7,93,83,75,78,75,70,97,78,48,29.93,29.87,5,1,10,0.16
2013-7-8,83,74,66,76,72,65,98,93,75,30.05,29.88,8,2,14,1.64
2013-7-9,80,71,66,71,68,66,98,90,75,30.09,30.03,5,1,9,0.00
2013-7-10,80,72,68,75,70,66,98,94,82,30.05,29.75,5,1,10,0.30
2013-7-11,83,75,67,76,73,66,100,93,75,29.93,29.73,6,0,14,0.71
2013-7-12,85,72,64,66,63,60,97,76,49,30.19,29.94,14,2,16,0.00
2013-7-13,85,72,61,72,65,60,96,79,55,30.30,30.19,6,1,8,0.00
2013-7-14,90,78,67,76,71,66,98,80,55,30.28,30.16,11,1,11,0.00
2013-7-15,94,80,68,75,70,67,97,75,47,30.18,30.06,9,1,16,0.00
2013-7-16,92,80,68,77,71,66,96,76,47,30.14,30.09,12,2,20,0.00
2013-7-17,98,83,69,79,72,68,96,73,44,30.15,29.93,8,2,14,0.00
2013-7-18,96,80,72,79,73,70,97,82,46,29.98,29.91,6,2,14,0.66
2013-7-19,72,72,71,72,71,71,98,98,97,29.91,29.88,2,0,3,0.00
2013-7-20,92,83,70,73,70,68,91,67,52,29.77,29.61,8,3,20,0.00
2013-7-21,85,73,64,70,66,61,96,80,54,29.97,29.78,5,1,15,0.05
2013-7-22,79,70,63,71,67,62,97,90,76,30.02,29.89,10,2,11,0.19
2013-7-23,77,69,66,72,68,65,97,94,82,29.89,29.52,10,2,13,2.33
2013-7-24,82,71,58,73,64,51,99,81,61,29.96,29.56,12,3,20,0.01
2013-7-25,75,65,54,63,56,51,92,75,56,30.09,29.96,8,2,13,0.00
2013-7-26,74,67,64,71,65,62,96,92,79,30.07,29.91,7,2,11,0.21
2013-7-27,88,73,59,68,62,59,98,74,38,30.02,29.94,9,2,12,0.00
2013-7-28,86,71,60,71,66,59,97,85,56,29.99,29.94,10,2,16,0.06
2013-7-29,88,72,64,74,68,64,98,89,56,30.02,29.91,11,2,14,0.57
2013-7-30,81,70,59,64,60,55,98,75,41,30.07,30.00,9,2,17,0.00
2013-7-31,86,70,57,67,60,56,96,74,39,30.12,30.01,11,2,13,0.00
2013-8-1,86,71,59,68,63,58,96,79,44,30.02,29.85,9,3,15,0.17
2013-8-2,86,72,64,68,64,55,97,78,37,29.85,29.74,7,2,18,0.26
2013-8-3,81,69,59,65,60,58,97,77,46,29.83,29.73,16,2,16,0.03
2013-8-4,76,66,54,63,57,53,96,76,53,29.86,29.76,10,2,16,0.01
2013-8-5,75,63,53,55,50,40,94,66,30,30.03,29.86,14,3,21,0.00
2013-8-6,82,66,48,60,53,47,95,68,36,30.14,30.03,7,2,9,0.00
2013-8-7,83,68,52,62,57,51,95,70,39,30.16,30.07,8,2,14,0.00
2013-8-8,86,74,64,72,68,60,94,82,60,30.08,29.96,9,2,13,0.01
2013-8-9,78,74,68,75,72,67,98,95,87,29.98,29.70,9,2,12,1.16
2013-8-10,81,72,61,67,60,51,99,72,37,29.99,29.75,12,2,22,0.01
2013-8-11,80,66,52,61,56,50,96,72,43,30.05,29.96,7,1,17,0.00
2013-8-12,84,69,56,67,60,54,96,75,43,30.00,29.89,11,2,11,0.00
2013-8-13,75,67,59,69,64,58,97,92,80,29.90,29.66,6,1,10,0.56
2013-8-14,74,66,57,66,57,53,98,74,51,29.92,29.64,21,4,22,0.00
2013-8-15,77,63,49,59,54,48,95,74,45,30.09,29.92,13,2,15,0.00
2013-8-16,82,65,51,65,56,49,96,77,40,30.17,30.08,7,2,15,0.00
2013-8-17,82,67,54,65,58,53,96,75,43,30.25,30.18,10,2,12,0.01
2013-8-18,81,69,58,68,62,57,96,80,55,30.25,30.05,5,1,8,0.00
2013-8-19,86,70,55,67,61,54,97,77,46,30.05,29.90,10,2,16,0.01
2013-8-20,88,72,59,70,63,57,96,76,44,30.07,29.95,6,1,14,0.00
2013-8-21,92,74,60,74,65,59,96,76,41,30.12,29.98,7,2,12,0.00
2013-8-22,92,76,62,75,67,60,96,76,40,30.00,29.77,10,2,15,0.00
2013-8-23,80,71,58,69,58,51,90,65,38,30.12,29.79,20,4,20,0.00
2013-8-24,82,64,51,60,52,46,94,70,34,30.32,30.13,8,2,11,0.00
2013-8-25,84,67,50,64,56,49,95,72,34,30.35,30.14,8,2,12,0.00
2013-8-26,81,71,63,72,67,61,97,86,67,30.14,29.84,7,2,12,0.17
2013-8-27,90,75,67,73,69,67,97,82,50,29.88,29.80,5,1,8,0.00
2013-8-28,91,74,64,73,68,63,97,85,50,29.98,29.82,22,2,27,0.80
2013-8-29,69,66,63,67,64,62,98,93,84,30.07,29.94,9,1,16,0.04
2013-8-30,87,72,61,75,67,61,98,85,54,30.00,29.77,8,1,11,0.00
2013-8-31,83,74,68,77,72,68,98,91,78,29.80,29.72,7,1,10,0.01
2013-9-1,89,77,68,76,72,68,98,85,57,29.85,29.75,8,1,10,0.91
2013-9-2,76,73,71,74,72,70,98,96,91,29.84,29.69,5,1,12,0.64
2013-9-3,79,71,62,71,68,61,99,89,69,29.77,29.67,8,1,10,0.01
2013-9-4,81,68,58,64,60,56,97,78,44,29.88,29.76,8,1,16,0.01
2013-9-5,69,61,48,61,53,42,98,78,39,30.14,29.83,12,2,17,0.03
2013-9-6,72,56,41,53,46,40,95,73,38,30.23,30.06,9,2,19,0.00
2013-9-7,78,61,48,60,53,46,96,79,39,30.06,29.82,7,1,15,0.02
2013-9-8,68,60,47,61,52,43,97,76,47,30.07,29.72,20,3,25,0.01
2013-9-9,73,56,41,54,46,40,95,74,36,30.21,30.07,8,1,13,0.00
2013-9-10,76,63,51,71,61,50,97,93,83,30.11,30.00,5,0,6,0.09
2013-9-11,97,80,68,80,73,68,99,82,50,30.03,29.87,12,2,21,0.50
2013-9-12,82,73,68,77,70,67,98,93,74,29.89,29.64,5,1,12,0.58
2013-9-13,75,67,59,69,64,55,98,89,75,29.74,29.56,13,2,20,0.11
2013-9-14,67,60,52,55,54,50,93,81,64,30.02,29.73,13,2,17,0.00
2013-9-15,74,58,44,59,51,43,96,79,42,30.13,30.00,8,1,15,0.00
2013-9-16,66,57,44,58,50,38,97,81,59,30.25,29.98,11,2,20,0.05
2013-9-17,67,50,36,52,42,35,95,76,43,30.42,30.26,11,1,14,0.00
2013-9-18,77,56,40,56,47,39,100,76,31,30.32,30.11,10,1,12,0.00
2013-9-19,82,61,45,62,52,43,96,76,35,30.12,30.01,5,1,9,0.00
2013-9-20,82,64,49,63,55,48,97,77,42,30.08,29.97,6,1,11,0.01
2013-9-21,77,64,49,66,58,48,99,83,57,30.00,29.69,12,4,19,0.00
2013-9-22,71,65,52,68,58,45,97,79,53,29.80,29.56,11,3,19,1.08
2013-9-23,58,52,47,45,43,40,84,71,59,29.97,29.81,18,5,26,0.00
2013-9-24,63,54,47,48,44,41,87,70,51,29.95,29.82,16,5,25,0.00
2013-9-25,67,56,44,52,49,43,95,77,58,29.98,29.86,11,2,20,0.00
2013-12-14,16,14,13,11,7,0,88,74,50,30.56,30.24,8,5,0,0.00
2013-12-15,30,19,12,26,16,9,91,87,80,30.18,29.51,13,5,0,0.00
2013-12-16,27,16,4,15,5,0,91,65,41,30.21,29.70,8,3,0,0.01
2013-12-17,16,4,-8,10,-2,-12,86,77,62,30.28,30.15,4,1,0,0.00
2013-12-18,33,24,16,23,19,13,90,81,62,29.98,29.88,6,3,18,0.07
2013-12-19,40,33,27,27,26,24,90,76,56,30.09,29.92,6,2,18,0.03
2013-12-20,42,33,28,35,30,26,93,88,72,30.11,29.90,4,1,18,0.04
2013-12-23,36,36,36,35,35,35,97,97,97,29.99,29.97,0,0,18,0.28
2013-12-26,28,22,10,25,19,7,92,89,80,30.48,30.09,5,1,8,0.00
2013-12-27,35,16,8,25,12,5,90,85,63,30.24,30.17,5,1,8,0.05
2014-1-1,23,18,12,12,10,9,87,70,55,30.39,30.31,6,3,0,0.00
2014-1-2,8,4,1,4,0,-4,84,82,78,30.18,29.94,14,9,15,0.00